www.pogodaiklimat.ru

Погода и климат >> Архив погоды >> Россия >> Московская область >> Пушкино


ПОГОДА в Пушкино

  • Прогноз погоды в Пушкино
  • Монитор погоды в Пушкино

АРХИВ ПОГОДЫ в Пушкино

Время (UTC), дата Ветер
(напр.,м/с)
 
Видим.   Явления Облачность Т
(С)
Тd
(С)
f
(%)
Тe
(С)
Тes
(С)
Комфортность P
(гПа)
Po
(гПа)
Тmin
(С)
Tmax
(С)
R
(мм)
R24
(мм)
S
(см)
00 16.07 штиль 0 н/о н/о +9.8 +9.4 97 +9 +9 1012.1 992.2
03 16.07 штиль 0 н/о н/о +11.7 +11.0 95 +11 +11 1012.0 992.2 +9.3
06 16.07 СВ 1 н/о н/о +16.3 +11.7 74 +17 +17 1011.8 992.4 +9.3
09 16.07 СВ 2 н/о н/о +20.6 +12.4 59 +23 +23 комфорт 1010.7 991.6
12 16.07 ЮВ 1 н/о н/о +21.1 +12.5 58 +23 +23 комфорт 1010.1 991.0
15 16.07 штиль 0 н/о н/о +20.0 +13.5 66 +22 +22 комфорт 1009.6 990.4
18 16.07 штиль 0 н/о н/о +14.6 +14.0 96 +14 +14 1009.6 990.1 +21.4 8
21 16.07 штиль 0 н/о н/о +14.5 +13.7 95 +14 +14 1009.4 989.9
00 17.07 В 1 н/о н/о +14.0 +13.7 98 +14 +14 1009.6 990.0
03 17.07 В 1 н/о н/о +14.2 +14.0 99 +14 +14 1009.3 989.8 +13.7 10
06 17.07 штиль 0 н/о н/о +16.1 +15.2 94 +16 +16 1008.5 989.1 +13.7 2
09 17.07 С 1 н/о н/о +19.2 +14.8 76 +22 +22 комфорт 1008.2 989.0
12 17.07 С 2 н/о н/о +19.6 +14.8 74 +22 +22 комфорт 1007.1 987.9
15 17.07 СВ 1 н/о н/о +16.1 +15.2 94 +17 +17 1006.7 987.4 4
18 17.07 штиль 0 н/о н/о +15.4 +15.2 99 +15 +15 1006.2 986.8 +20.5 6
21 17.07 штиль 0 н/о н/о +15.0 +14.5 97 +15 +15 1005.2 985.8
00 18.07 штиль 0 н/о н/о +14.8 +14.5 98 +14 +14 1004.0 984.6
03 18.07 ЮВ 1 н/о н/о +15.0 +14.7 98 +15 +15 1003.8 984.4 +14.8 2
06 18.07 ЮВ 1 н/о н/о +17.9 +15.2 84 +19 +19 1003.7 984.6 +14.8
09 18.07 Ю 2 н/о н/о +21.1 +13.0 60 +23 +23 комфорт 1003.9 984.9
12 18.07 Ю 2 н/о н/о +17.8 +12.8 73 +18 +18 1004.5 985.3
15 18.07 В 2 н/о н/о +19.4 +14.0 71 +22 +22 комфорт 1004.7 985.6 1
18 18.07 ЮВ 1 н/о н/о +17.2 +15.2 88 +18 +18 1004.7 985.5 +22.7 1
21 18.07 ЮВ 1
{14}
н/о н/о +13.5 +13.0 97 +14 +14 1005.6 986.1
00 19.07 В 1 н/о н/о +12.0 +11.7 98 +12 +12 1005.6 986.0
03 19.07 ЮВ 1 н/о н/о +12.0 +11.5 97 +12 +12 1005.0 985.4 +11.8 4
06 19.07 ЮВ 2 н/о н/о +13.2 +12.8 97 +12 +12 1004.2 984.7 +11.8 6
09 19.07 штиль 0 н/о н/о +14.7 +14.0 96 +14 +14 1004.4 985.0
12 19.07 З 2 н/о н/о +19.3 +13.7 70 +21 +21 комфорт 1005.3 986.2
15 19.07 штиль 0 н/о н/о +17.9 +15.0 83 +18 +18 1006.2 987.0 10
18 19.07 Ю 1 н/о н/о +15.2 +14.8 97 +16 +16 1007.4 988.0 +19.5 9
21 19.07 Ю 1 н/о н/о +13.8 +13.4 97 +14 +14 1007.6 988.1
00 20.07 ЮЗ 1 н/о н/о +13.6 +13.4 99 +14 +14 1008.0 988.4
03 20.07 ЮЗ 1 н/о н/о +14.7 +14.4 98 +15 +15 1008.7 989.3 +13.3 2
06 20.07 З 2 н/о н/о +16.7 +14.4 86 +17 +17 1009.5 990.1 +13.3 1
09 20.07 ЮЗ 3 н/о н/о +19.4 +14.0 71 +21 +21 комфорт 1010.3 991.1
12 20.07 З 3 н/о н/о +21.7 +12.2 55 +24 +24 комфорт 1010.6 991.6
15 20.07 З 1 н/о н/о +15.8 +15.0 95 +16 +16 1011.8 992.3 13
18 20.07 штиль 0 н/о н/о +16.0 +15.7 98 +16 +16 1012.9 993.5 +22.0 18
21 20.07 ЮЗ 1 н/о н/о +15.3 +15.0 98 +16 +16 1013.4 993.9
00 21.07 З 2 н/о н/о +15.7 +15.0 96 +16 +16 1014.2 994.7
03 21.07 З 2 н/о н/о +15.4 +15.0 97 +15 +15 1014.7 995.1 +15.2 5
06 21.07 СЗ 2 н/о н/о +17.1 +15.0 87 +17 +17 1015.5 996.0 +15.2
09 21.07 З 2 н/о н/о +19.5 +14.2 71 +22 +22 комфорт 1016.0 996.7
12 21.07 З 2 н/о н/о +21.3 +14.4 65 +24 +24 комфорт 1016.3 997.1
15 21.07 З 3 н/о н/о +23.0 +12.2 51 +26 +26 жарко 1015.8 996.7
18 21.07 З 1 н/о н/о +18.2 +14.5 79 +20 +20 1016.8 997.4 +23.3
21 21.07 штиль 0 н/о н/о +13.8 +13.4 97 +13 +13 1017.6 997.9
00 22.07 штиль 0 н/о н/о +12.3 +12.0 98 +12 +12 1018.0 998.2

 

Местоположение метеостанции Пушкино (Московская область, Россия): широта 56.03 долгота 37.85 высота над уровнем моря 165 м.

В архиве по умолчанию представлена погода в Пушкино за последнюю неделю. Архивные данные за месяц целиком и за предыдущие месяцы, начиная с января 2011 года, Вы можете получить, выбрав интересующий диапазон дат из раскрывающегося списка и нажав кнопку "Ввод!".


*Определитесь, кто Вы:
робот инопланетянин человек

Внимание! Время в таблицах - всемирное. Для получения местного времени необходимо прибавить поправку, которая равна 3 ч.

Смотрите также архив погоды в соседних городах и на ближайших метеорологических станциях:

Погода в Луговой (Московская область, Россия) (23 км)
Погода в Долгопрудном (Московская область, Россия) (23 км)
Погода в Москве (город Москва, Россия) (26 км)
Погода в Шереметьево (Московская область, Россия) (28 км)
Погода в Железнодорожном АМС (Московская область, Россия) (31 км)
Погода в Москве (Тушино) (город Москва, Россия) (32 км)
Погода в Москве (Балчуг) (город Москва, Россия) (34 км)
Погода в Сергиевом Посаде (Московская область, Россия) (38 км)
Погода в Москве (Строгино) (город Москва, Россия) (38 км)
Погода в Электроуглях (Московская область, Россия) (39 км)

Пояснения к столбцам:

Ветер - указаны скорость ветра в м/с - средняя за 10 мин, порывы в срок и между сроками (в фигурных скобках) и направление, откуда дует ветер: С - северный, СВ - северо-восточный, В - восточный, ЮВ - юго-восточный, Ю - южный, ЮЗ - юго-западный, З - западный, СЗ - северо-западный.
Видимость - горизонтальная дальность видимости в метрах или километрах. При видимости от 1 до 10 км при отсутствии осадков обычно наблюдается дымка, при ухудшении видимости до 1 км и менее - туман. В сухую погоду видимость может ухудшаться дымом, пылью или мглою.
Явления - указаны атмосферные явления, наблюдавшиеся в срок или в последний час перед сроком; фигурными скобками обозначены явления, наблюдавшиеся между сроками (за 1-3 часа до срока); квадратными скобками обозначены град или гололедные отложения с указанием их диаметра в мм.
Облачность - указаны через наклонную черту общая и нижняя облачность в баллах и высота нижней границы облаков в метрах; квадратными скобками обозначены формы облаков: Ci - перистые, Cs - перисто-слоистые, Cc - перисто-кучевые, Ac - высококучевые, As - высокослоистые, Sc - слоисто-кучевые, Ns - слоисто-дождевые, Cu - кучевые, Cb - кучево-дождевые. Подробнее классификацию облаков см. в Атласе облаков (PDF).
T - Температура воздуха - температура, измеренная на высоте 2 м над землей.
Td - Температура точки росы - температура, при понижении до которой содержащийся в воздухе водяной пар достигнет насыщения.
f - Относительная влажность воздуха - влажноcть воздуха, измеренная на высоте 2 м над землей.
Te - Эффективная температура - температура, которую ощущает одетый по сезону человек в тени. Характеристика душности погоды. При расчете учитывается влияние влажности воздуха и скорости ветра на теплоощущения человека.
Tes - Эффективная температура на солнце - температура, которую ощущает человек, с поправкой на солнечный нагрев. Характеристика знойности погоды. Зависит от высоты солнца над горизонтом, облачности и скорости ветра. Ночью, в пасмурную погоду, а также при ветре 12 м/с и более поправка равна нулю.
P - Атмосферное давление - приведенное к уровню моря атмосферное давление.
Po - Атмосферное давление - измеренное на уровне метеостанции атмосферное давление.
Tmin - Минимальная температура - минимум температуры воздуха на высоте 2 м над землей.
Tmax - Максимальная температура - максимум температуры воздуха на высоте 2 м над землей.
R - Количество осадков - Количество выпавших осадков за период времени, мм. При наведении курсора мыши на число - период времени, за который выпало указанное количество осадков.
R24 - Количество осадков - Количество выпавших осадков за 24 часа, мм.
S - Снежный покров - Высота снежного покрова, см. При наведении курсора мыши на число - состояние снежного покрова и степень покрытия местности в баллах.